Orbital Elements at Epoch 2459200.5 (2020-Dec-17.0) TDB
Reference: JPL 20 (heliocentric ecliptic J2000)
Element | Value | Uncertainty (1-sigma) | Units |
e | .1445125676272651 | 4.6041e-08 | |
a | 3.096481044681394 | 2.8939e-08 | au |
q | 2.64900061830533 | 1.5216e-07 | au |
i | 14.42525476312607 | 5.2114e-06 | deg |
node | 264.2950605760676 | 2.4357e-05 | deg |
peri | 5.345229966711105 | 3.4369e-05 | deg |
M | 8.478496257577014 | 2.4252e-05 | deg |
tp | 2459153.627577724416 (2020-Oct-31.12757772) | 0.00013415 | TDB |
period | 1990.219905343494 5.45 | 2.79e-05 7.639e-08 | d yr |
n | .1808845339318759 | 2.5358e-09 | deg/d |
Q | 3.543961471057459 | 3.3121e-08 | au |
|
| | Orbit Determination Parameters
Additional Information
|